[[[{"header":{"parameterUnit":"kt","parameterCategory":2,"dx":1,"dy":1,"la1":30.253999710083008,"la2":30.299108505249023,"lo1":-89.0895004272461,"lo2":-89.04439544677734,"nx":28,"ny":28,"refTime":"2022-10-08T21:00:00:Z","depth":0,"parameterNumber":1,"parameterNumberName":"U-component_of_WINDS"},"data":[-5.1707,-5.1828,-5.1794,-5.1916,-5.1905,-5.1983,-5.1999,-5.2017,-5.2022,-5.211,-5.2155,-5.2132,-5.2124,-5.2169,-5.2215,-5.2204,-5.2228,-5.2296,-5.2272,-5.1998,-5.1958,-5.1919,-5.1889,-5.2301,-5.2301,-5.2562,-5.2564,-5.2566,-5.1508,-5.1499,-5.1553,-5.1583,-5.1628,-5.1541,-5.1557,-5.1602,-5.1674,-5.1681,-5.1723,-5.1798,-5.1853,-5.182,-5.1867,-5.1924,-5.1887,-5.1939,-5.1936,-5.1937,-5.1642,-5.161,-5.1968,-5.1968,-5.1968,-5.1968,-5.1968,-5.1968,-5.1138,-5.1212,-5.1209,-5.1267,-5.1272,-5.1292,-5.1356,-5.1326,-5.1379,-5.1423,-5.137,-5.1451,-5.1452,-5.1491,-5.1496,-5.1558,-5.1493,-5.1541,-5.1553,-5.1567,-5.1588,-5.1221,-5.1563,-5.1562,-5.1561,-5.156,-5.1559,0,-5.0857,-5.0822,-5.0872,-5.0911,-5.0952,-5.0979,-5.0998,-5.1036,-5.0951,-5.0999,-5.1064,-5.1096,-5.1159,-5.1217,-5.1253,-5.1247,-5.1165,-5.1151,-5.1184,-5.1213,-5.1235,-5.1228,-5.0751,-5.1142,-5.1139,-5.1136,-5.1134,-5.1132,-5.0483,-5.0573,-5.0552,-5.0592,-5.0593,-5.0659,-5.069,-5.0608,-5.0645,-5.0657,-5.0726,-5.0782,-5.0823,-5.0934,-5.0899,-5.0946,-5.0907,-5.1061,-5.0914,-5.0937,-5.0913,-5.0911,-5.092,-5.1093,-5.1098,-5.1102,-5.1105,0,-5.0277,-5.0218,-5.0346,-5.0316,-5.0312,-5.041,-5.0385,-5.0455,-5.0418,-5.051,-5.0526,-5.0469,-5.0535,-5.0474,-5.0537,-5.0503,-5.0666,-5.0625,-5.0666,-5.0655,-5.0789,-5.0779,-5.1228,-5.1283,-5.0852,-5.0856,-5.0859,0,-4.9937,-5.0058,-4.9964,-5.0042,-5.0173,-5.0087,-5.0219,-5.02,-5.0199,-5.027,-5.0164,-5.0234,-5.0144,-5.0205,-5.0155,-5.0277,-5.0288,-5.0271,-5.0257,-5.0283,-5.0286,-5.0305,-5.0287,-5.0218,-5.0216,-5.0214,-5.0212,0,-4.9623,-4.9713,-4.9838,-4.9849,-4.9831,-4.9891,-4.9886,-4.9883,-4.9916,-4.9947,-4.9967,-5.0009,-5.0034,-5.0069,-5.0006,-4.9909,-5.0152,-5.0005,-5.0135,-5.0137,-5.0195,-5.0193,-5.0602,-5.0209,-5.0209,-5.0208,-5.0207,0,-4.9341,-4.9374,-4.9562,-4.9544,-4.9571,-4.9653,-4.9689,-4.9745,-4.975,-4.9724,-4.9748,-4.9671,-4.977,-4.963,-4.9766,-4.9658,-4.9688,-4.9679,-4.9687,-4.9696,-4.9542,-4.9785,-5.0177,-5.0218,-4.97,-4.9695,-4.9691,0,-4.8999,-4.9173,-4.9101,-4.9282,-4.9354,-4.923,-4.9319,-4.9327,-4.9299,-4.9356,-4.9324,-4.9391,-4.9273,-4.9286,-4.9361,-4.9333,-4.9473,-4.9311,-4.9399,-4.9403,-4.9405,-4.9763,-4.9839,-5.0097,-4.9636,-4.9642,-4.9646,0,-4.8728,-4.8703,-4.8741,-4.875,-4.8746,-4.8806,-4.8908,-4.8954,-4.8997,-4.9016,-4.9101,-4.9191,-4.9106,-4.9128,-4.907,-4.9152,-4.9375,-4.9051,-4.9049,-4.9114,-4.9602,-4.9674,-4.9718,-4.9318,-4.9325,-4.933,-4.9602,0,-4.832,-4.8399,-4.8496,-4.8522,-4.8557,-4.8667,-4.8601,-4.8647,-4.8587,-4.8556,-4.8678,-4.8669,-4.8718,-4.8749,-4.8692,-4.8897,-4.8855,-4.8764,-4.8626,-4.8861,-4.8949,-4.8985,-4.8499,-4.8495,-4.8491,-4.8488,0,0,-4.801,-4.8121,-4.8039,-4.8135,-4.8161,-4.8031,-4.8154,-4.8163,-4.8188,-4.8209,-4.813,-4.8258,-4.8255,-4.8411,-4.8478,-4.8497,-4.8529,-4.845,-4.8749,-4.8778,-4.8805,-4.8901,-4.8939,-4.8481,-4.848,-4.8478,-4.8477,0,-4.7848,-4.7845,-4.7966,-4.7972,-4.7978,-4.7938,-4.7968,-4.7952,-4.7937,-4.8056,-4.7949,-4.8014,-4.8119,-4.813,-4.815,-4.8428,-4.8346,-4.8447,-4.8619,-4.8713,-4.8747,-4.8777,-4.8879,-4.8916,-4.8468,-4.8469,-4.8469,0,-4.7571,-4.7558,-4.7609,-4.766,-4.7663,-4.7741,-4.7578,-4.7667,-4.7724,-4.7579,-4.77,-4.7686,-4.7695,-4.785,-4.7917,-4.7848,-4.8183,-4.8065,-4.8087,-4.8094,-4.8181,-4.8223,-4.826,-4.7775,-4.7773,-4.7771,0,0,-4.7441,-4.7513,-4.7474,-4.7621,-4.763,-4.7573,-4.7607,-4.7551,-4.7561,-4.7566,-4.7547,-4.7561,-4.7621,-4.7662,-4.7715,-4.7894,-4.789,-4.7982,-4.8015,-4.8042,-4.8064,-4.8158,-4.8199,-4.7763,-4.7763,-4.7762,0,0,-4.7379,-4.734,-4.7277,-4.7439,-4.7451,-4.7424,-4.7516,-4.744,-4.748,-4.7461,-4.7372,-4.7372,-4.7515,-4.7507,-4.7405,-4.7665,-4.7529,-4.7552,-4.7666,-4.7707,-4.7739,-4.7739,-4.724,0,0,0,0,0,-4.7181,-4.7343,-4.7288,-4.7305,-4.7369,-4.7455,-4.7462,-4.7392,-4.7297,-4.7372,-4.7344,-4.7252,-4.7434,-4.7342,-4.7361,-4.7476,-4.7658,-4.7677,-4.7694,-4.7883,-4.7926,-4.7962,0,0,0,0,0,0,-4.7187,-4.7208,-4.7283,-4.7264,-4.7277,-4.7448,-4.7272,-4.7257,-4.7287,-4.7268,-4.7261,-4.7252,-4.7194,-4.7327,-4.7346,-4.7456,-4.7234,-4.7666,-4.7681,-4.7696,-4.7898,-4.7933,-4.7963,0,0,0,0,0,-4.7191,-4.7208,-4.733,-4.7261,-4.7273,-4.7218,-4.7265,-4.7252,-4.7274,-4.7231,-4.722,-4.7218,-4.7199,-4.721,-4.7338,-4.745,-4.7221,-4.7228,-4.7676,-4.7688,-4.7699,-4.7915,0,0,0,0,0,0,-4.7195,-4.7197,-4.7331,-4.7332,-4.7194,-4.7207,-4.7207,-4.7247,-4.7233,-4.7224,-4.7184,-4.7169,-4.7205,-4.7212,-4.7221,-4.7452,-4.721,-4.7217,-4.7222,-4.7685,-4.7695,-4.7704,0,0,0,0,0,0,-4.7187,-4.7199,-4.7332,-4.7251,-4.7242,-4.7198,-4.7197,-4.7295,-4.7235,-4.7186,-4.7173,-4.7177,-4.7192,-4.7215,-4.7221,-4.7377,-4.7202,-4.7209,-4.7214,-4.7217,-4.7693,-4.7701,0,0,0,0,0,0,-4.719,-4.72,-4.725,-4.7244,-4.7235,-4.7242,-4.7283,-4.7353,-4.7165,-4.7189,-4.7147,-4.7138,-4.7198,-4.7202,-4.7222,-4.7376,-4.7377,-4.7202,-4.7207,-4.721,-4.7212,0,0,0,0,0,0,0,-4.7193,-4.7143,-4.7325,-4.7238,-4.723,-4.7342,-4.7342,-4.7342,-4.7164,-4.7156,-4.7149,-4.7142,-4.7163,-4.717,-4.7178,-4.7375,0,0,-4.7201,-4.7205,0,0,0,0,0,0,0,0,-4.7138,-4.7142,-4.7325,-4.7325,-4.7325,-4.7342,-4.7342,-4.7342,-4.7162,-4.7156,-4.715,-4.7144,-4.7165,-4.7171,-4.7177,0,0,0,0,0,0,0,0,0,0,0,0,0,0,0,-4.7325,-4.7325,0,-4.7342,-4.7342,-4.7342,-4.7161,-4.7156,-4.7151,-4.7147,-4.7166,-4.7171,-4.7177,0,0,0,0,0,0,0,0,0,0,0,0,0,0,0,0,0,0,0,0,0,0,0,0,0,0,0,0,0,0,0,0,0,0,0,0,0,0,0,0,0,0,0,0,0,0,0,0,0,0,0,0,0,0,0,0,0,0,0,0,0,0,0,0,0,0,0,0,0]}],[{"header":{"parameterUnit":"kt","parameterCategory":2,"dx":1,"dy":1,"la1":30.253999710083008,"la2":30.299108505249023,"lo1":-89.0895004272461,"lo2":-89.04439544677734,"nx":28,"ny":28,"refTime":"2022-10-08T21:00:00:Z","depth":0,"parameterNumber":2,"parameterNumberName":"V-component_of_WINDS"},"data":[-11.418,-11.4391,-11.4392,-11.4631,-11.4671,-11.4833,-11.489,-11.4963,-11.502,-11.5209,-11.5316,-11.5333,-11.5385,-11.5509,-11.5621,-11.5625,-11.5673,-11.5748,-11.574,-11.5409,-11.5363,-11.5319,-11.5271,-11.5759,-11.5759,-11.6082,-11.6085,-11.6088,-11.3937,-11.3982,-11.4109,-11.4232,-11.434,-11.4269,-11.4358,-11.4452,-11.4596,-11.4667,-11.4773,-11.4937,-11.5064,-11.509,-11.5211,-11.5304,-11.5275,-11.5336,-11.5329,-11.5338,-11.4985,-11.4934,-11.5358,-11.5358,-11.5358,-11.5358,-11.5358,-11.5358,-11.3496,-11.3623,-11.3699,-11.3836,-11.3897,-11.3978,-11.4097,-11.4117,-11.4238,-11.4368,-11.4341,-11.4502,-11.457,-11.4712,-11.4758,-11.488,-11.4811,-11.4876,-11.4892,-11.4909,-11.493,-11.4464,-11.49,-11.4899,-11.4898,-11.4897,-11.4896,0,-11.3173,-11.3166,-11.3288,-11.341,-11.351,-11.3603,-11.3687,-11.376,-11.3737,-11.3837,-11.3981,-11.4062,-11.4221,-11.4353,-11.4464,-11.4497,-11.4428,-11.442,-11.4465,-11.4482,-11.4484,-11.4485,-11.391,-11.4407,-11.4403,-11.44,-11.4398,-11.4396,-11.2728,-11.2876,-11.2954,-11.3039,-11.3085,-11.3222,-11.3303,-11.3272,-11.3358,-11.3454,-11.3564,-11.3696,-11.3801,-11.4026,-11.4042,-11.4159,-11.4126,-11.4317,-11.4143,-11.4153,-11.4129,-11.4121,-11.4135,-11.4351,-11.4357,-11.4362,-11.4365,0,-11.2477,-11.2477,-11.2704,-11.2765,-11.2785,-11.2939,-11.2989,-11.3111,-11.3115,-11.3283,-11.332,-11.3326,-11.3465,-11.3451,-11.3604,-11.3592,-11.3839,-11.3804,-11.3816,-11.3808,-11.3977,-11.3962,-11.4529,-11.4601,-11.4095,-11.41,-11.4104,0,-11.2097,-11.2291,-11.2278,-11.241,-11.2622,-11.2587,-11.2797,-11.2822,-11.2881,-11.3013,-11.2934,-11.3058,-11.302,-11.3141,-11.3123,-11.3321,-11.335,-11.3352,-11.3345,-11.336,-11.336,-11.3403,-11.3379,-11.3322,-11.332,-11.3317,-11.3315,0,-11.1705,-11.1924,-11.2138,-11.2188,-11.2271,-11.2371,-11.2409,-11.2474,-11.2552,-11.265,-11.27,-11.2815,-11.2879,-11.2968,-11.2944,-11.2827,-11.3186,-11.302,-11.3188,-11.3189,-11.3269,-11.3264,-11.377,-11.3311,-11.331,-11.3309,-11.3308,0,-11.1397,-11.1503,-11.1814,-11.188,-11.1939,-11.2078,-11.2192,-11.2308,-11.2382,-11.2381,-11.2457,-11.2402,-11.2575,-11.2411,-11.2648,-11.2503,-11.2568,-11.2586,-11.2597,-11.2612,-11.2429,-11.2717,-11.3201,-11.3251,-11.2625,-11.2619,-11.2614,0,-11.0949,-11.1262,-11.1235,-11.1529,-11.1671,-11.1575,-11.1728,-11.1797,-11.1808,-11.1927,-11.1936,-11.2071,-11.1946,-11.1986,-11.2105,-11.212,-11.2309,-11.2094,-11.226,-11.2267,-11.2246,-11.269,-11.2767,-11.3096,-11.2541,-11.2549,-11.2554,0,-11.0601,-11.0703,-11.0758,-11.0812,-11.09,-11.1018,-11.1194,-11.1322,-11.1403,-11.1488,-11.1633,-11.1821,-11.1734,-11.1801,-11.1768,-11.1893,-11.2179,-11.1782,-11.1783,-11.1854,-11.2503,-11.2574,-11.263,-11.2129,-11.2137,-11.2145,-11.2496,0,-11.0137,-11.0293,-11.044,-11.0564,-11.0653,-11.0836,-11.0824,-11.0918,-11.0879,-11.0886,-11.1098,-11.1149,-11.1275,-11.1333,-11.1295,-11.1587,-11.1535,-11.144,-11.1279,-11.1571,-11.1687,-11.1734,-11.1109,-11.1104,-11.11,-11.1096,0,0,-10.9708,-10.9931,-10.9895,-11.0067,-11.014,-11.0037,-11.0234,-11.0291,-11.0411,-11.0462,-11.0372,-11.0646,-11.0691,-11.0949,-11.1039,-11.109,-11.114,-11.1039,-11.1432,-11.147,-11.1505,-11.1628,-11.1678,-11.1089,-11.1088,-11.1086,-11.1085,0,-10.9536,-10.9591,-10.9788,-10.9847,-10.9934,-10.9933,-10.998,-11.0047,-11.006,-11.0269,-11.0178,-11.0303,-11.0523,-11.0582,-11.0641,-11.1007,-11.093,-11.1046,-11.125,-11.1392,-11.1435,-11.1473,-11.1603,-11.1651,-11.1075,-11.1076,-11.1076,0,-10.9192,-10.9243,-10.9337,-10.95,-10.9555,-10.9703,-10.9532,-10.9696,-10.9804,-10.9678,-10.9887,-10.9913,-10.999,-11.0236,-11.0346,-11.0267,-11.074,-11.0588,-11.0613,-11.0625,-11.0761,-11.0813,-11.0859,-11.0253,-11.025,-11.0247,0,0,-10.9044,-10.919,-10.9234,-10.9462,-10.9503,-10.9505,-10.9581,-10.955,-10.9625,-10.9655,-10.9687,-10.976,-10.9886,-10.997,-11.0088,-11.0361,-11.0373,-11.0487,-11.0526,-11.0558,-11.0587,-11.0732,-11.0783,-11.0237,-11.0237,-11.0236,0,0,-10.8973,-10.9035,-10.8983,-10.9247,-10.9323,-10.9379,-10.9517,-10.9454,-10.956,-10.9537,-10.9488,-10.9505,-10.9735,-10.9763,-10.9624,-11.003,-10.9871,-10.9904,-11.0003,-11.0052,-11.009,-11.0079,-10.9454,0,0,0,0,0,-10.8792,-10.9027,-10.898,-10.9022,-10.9226,-10.9406,-10.9431,-10.9399,-10.9287,-10.9398,-10.9414,-10.9326,-10.9678,-10.9554,-10.9595,-10.975,-11.0101,-11.0125,-11.0148,-11.0341,-11.0392,-11.0435,0,0,0,0,0,0,-10.8809,-10.8861,-10.8973,-10.904,-10.9085,-10.9397,-10.9201,-10.9199,-10.9275,-10.9255,-10.9326,-10.9329,-10.9302,-10.9531,-10.9568,-10.9716,-10.9441,-11.0111,-11.0131,-11.0149,-11.0358,-11.04,-11.0436,0,0,0,0,0,-10.8822,-10.8864,-10.92,-10.9036,-10.9076,-10.9089,-10.9192,-10.9189,-10.9246,-10.9272,-10.9271,-10.9215,-10.9307,-10.9336,-10.9553,-10.97,-10.9415,-10.9429,-11.0124,-11.014,-11.0154,-11.0379,0,0,0,0,0,0,-10.8831,-10.886,-10.9207,-10.9217,-10.8946,-10.907,-10.9089,-10.918,-10.9256,-10.9259,-10.9157,-10.9141,-10.9313,-10.9334,-10.9357,-10.9697,-10.9394,-10.9408,-10.9417,-11.0136,-11.0149,-11.016,0,0,0,0,0,0,-10.8837,-10.887,-10.9212,-10.91,-10.9097,-10.9054,-10.9071,-10.9249,-10.9259,-10.9137,-10.9126,-10.9149,-10.9277,-10.9335,-10.9352,-10.9632,-10.9377,-10.9391,-10.9401,-10.9407,-11.0146,-11.0156,0,0,0,0,0,0,-10.885,-10.8879,-10.9097,-10.9095,-10.9092,-10.9208,-10.921,-10.9419,-10.9167,-10.9135,-10.9143,-10.9132,-10.9281,-10.9297,-10.935,-10.9623,-10.963,-10.9378,-10.9387,-10.9394,-10.9398,0,0,0,0,0,0,0,-10.8861,-10.8681,-10.9144,-10.9091,-10.9088,-10.9315,-10.9318,-10.9321,-10.9164,-10.9155,-10.9145,-10.9136,-10.9299,-10.9314,-10.9329,-10.9615,0,0,-10.9376,-10.9383,0,0,0,0,0,0,0,0,-10.8669,-10.8678,-10.9145,-10.9147,-10.9149,-10.9316,-10.9318,-10.932,-10.9163,-10.9155,-10.9147,-10.914,-10.9303,-10.9315,-10.9328,0,0,0,0,0,0,0,0,0,0,0,0,0,0,0,-10.9145,-10.9147,0,-10.9316,-10.9318,-10.932,-10.9162,-10.9155,-10.9149,-10.9143,-10.9306,-10.9316,-10.9327,0,0,0,0,0,0,0,0,0,0,0,0,0,0,0,0,0,0,0,0,0,0,0,0,0,0,0,0,0,0,0,0,0,0,0,0,0,0,0,0,0,0,0,0,0,0,0,0,0,0,0,0,0,0,0,0,0,0,0,0,0,0,0,0,0,0,0,0,0]}]]]